sat.trackr.live / text

‹ back to catalog

STARLINK-35512

NORAD 66330 · 2025-253M

PAYLOAD ACTIVE UNKNOWN

§ Identity

Operator
Country
US
Launch date
2025-11-06
Launch site
AFETR
Launch vehicle
Mass (kg)
RCS (m²)

Purposes: comms

External: N2YO · Heavens-Above · Gunter

§ Orbital elements

Epoch: 2026-09-20T05:21:22.704480Z

Period
94.27 min
Inclination
42.9988°
Eccentricity
0.0001073
Mean motion
15.27591123 rev/d
Perigee alt
482.3 km
Apogee alt
483.8 km
Semi-major
6,861.2 km
B*
4.6845e-4
RAAN
194.0792°
Arg perigee
274.9260°
Mean anomaly
85.1469°
Rev number
4,999

§ Raw data

STARLINK-355121 66330U 25253M   26263.22317945  .00012655  00000+0  46845-3 0  99952 66330  42.9988 194.0792 0001073 274.9260  85.1469 15.27591123 49993

JSON: /api/v1/satellites/66330 · /tle

For live sub-satellite position, see the globe view (requires WebGL).

§ Visibility from observer

Set your observer location to see the next 7 days of passes ≥ 10°. The values pass through the URL so the page stays shareable.

No JS? Fill the form by hand. The geolocation button needs JavaScript.